Time,TemperatureF,DewpointF,PressureIn,WindDirection,WindDirectionDegrees,WindSpeedMPH,WindSpeedGustMPH,Humidity,HourlyPrecipIn,Conditions,Clouds,dailyrainin,SoftwareType,DateUTC
2013-03-21 00:02:00,36.0,13.0,-100.00,North,0,2.0,4.0,37,-99.99,,,-99.99,,2013-03-21 06:02:00,
2013-03-21 00:12:00,35.0,13.0,-100.00,WSW,255,0.0,2.0,39,-99.99,,,-99.99,,2013-03-21 06:12:00,
2013-03-21 00:22:00,34.0,13.0,-100.00,NE,45,1.0,2.0,40,-99.99,,,-99.99,,2013-03-21 06:22:00,
2013-03-21 00:32:00,35.0,13.0,-100.00,North,5,0.0,2.0,40,-99.99,,,-99.99,,2013-03-21 06:32:00,
2013-03-21 00:42:00,35.0,13.0,-100.00,WNW,300,2.0,2.0,40,-99.99,,,-99.99,,2013-03-21 06:42:00,
2013-03-21 00:52:00,36.0,14.0,-100.00,NE,45,6.0,6.0,39,-99.99,,,-99.99,,2013-03-21 06:52:00,
2013-03-21 01:02:00,31.0,13.0,-100.00,WSW,250,2.0,7.0,45,-99.99,,,-99.99,,2013-03-21 07:02:00,
2013-03-21 01:12:00,30.0,13.0,-100.00,ENE,60,5.0,6.0,48,-99.99,,,-99.99,,2013-03-21 07:12:00,
2013-03-21 01:22:00,35.0,15.0,-100.00,NNE,30,1.0,2.0,43,-99.99,,,-99.99,,2013-03-21 07:22:00,
2013-03-21 01:32:00,33.0,14.0,-100.00,NE,40,1.0,6.0,46,-99.99,,,-99.99,,2013-03-21 07:32:00,
2013-03-21 01:42:00,33.0,14.0,-100.00,NW,305,6.0,7.0,46,-99.99,,,-99.99,,2013-03-21 07:42:00,
2013-03-21 01:52:00,35.0,15.0,-100.00,ENE,65,4.0,6.0,44,-99.99,,,-99.99,,2013-03-21 07:52:00,
2013-03-21 02:02:00,33.0,15.0,-100.00,ENE,60,1.0,7.0,46,-99.99,,,-99.99,,2013-03-21 08:02:00,
2013-03-21 02:13:00,34.0,15.0,-100.00,WNW,290,1.0,4.0,45,-99.99,,,-99.99,,2013-03-21 08:13:00,
2013-03-21 02:22:00,34.0,15.0,-100.00,WNW,300,6.0,7.0,45,-99.99,,,-99.99,,2013-03-21 08:22:00,
2013-03-21 02:33:00,35.0,16.0,-100.00,NNW,340,6.0,7.0,44,-99.99,,,-99.99,,2013-03-21 08:33:00,
2013-03-21 02:42:00,33.0,15.0,-100.00,NW,310,3.0,7.0,46,-99.99,,,-99.99,,2013-03-21 08:42:00,
2013-03-21 02:52:00,33.0,15.0,-100.00,West,270,1.0,3.0,47,-99.99,,,-99.99,,2013-03-21 08:52:00,
2013-03-21 03:02:00,33.0,16.0,-100.00,NE,45,2.0,3.0,48,-99.99,,,-99.99,,2013-03-21 09:02:00,
2013-03-21 03:11:00,34.0,16.0,-100.00,WNW,285,1.0,3.0,47,-99.99,,,-99.99,,2013-03-21 09:11:00,
2013-03-21 03:21:00,35.0,16.0,-100.00,NE,50,1.0,2.0,45,-99.99,,,-99.99,,2013-03-21 09:21:00,
2013-03-21 03:33:00,35.0,17.0,-100.00,North,350,2.0,3.0,45,-99.99,,,-99.99,,2013-03-21 09:33:00,
2013-03-21 03:43:00,36.0,17.0,-100.00,North,350,2.0,4.0,44,-99.99,,,-99.99,,2013-03-21 09:43:00,
2013-03-21 03:53:00,35.0,16.0,-100.00,WNW,295,2.0,4.0,45,-99.99,,,-99.99,,2013-03-21 09:53:00,
2013-03-21 04:03:00,33.0,16.0,-100.00,NNW,340,1.0,2.0,48,-99.99,,,-99.99,,2013-03-21 10:03:00,
2013-03-21 04:12:00,33.0,16.0,-100.00,WNW,300,3.0,4.0,48,-99.99,,,-99.99,,2013-03-21 10:12:00,
2013-03-21 04:22:00,34.0,17.0,-100.00,NW,325,1.0,4.0,48,-99.99,,,-99.99,,2013-03-21 10:22:00,
2013-03-21 04:33:00,34.0,17.0,-100.00,North,0,5.0,6.0,48,-99.99,,,-99.99,,2013-03-21 10:33:00,
2013-03-21 04:42:00,35.0,17.0,-100.00,NNW,335,7.0,9.0,46,-99.99,,,-99.99,,2013-03-21 10:42:00,
2013-03-21 04:52:00,38.0,18.0,-100.00,NNE,20,5.0,6.0,44,-99.99,,,-99.99,,2013-03-21 10:52:00,
2013-03-21 05:03:00,39.0,18.0,-100.00,WNW,285,7.0,8.0,41,-99.99,,,-99.99,,2013-03-21 11:03:00,
2013-03-21 05:12:00,37.0,17.0,-100.00,NW,315,6.0,9.0,43,-99.99,,,-99.99,,2013-03-21 11:12:00,
2013-03-21 05:22:00,39.0,18.0,-100.00,NW,325,7.0,12.0,41,-99.99,,,-99.99,,2013-03-21 11:22:00,
2013-03-21 05:33:00,42.0,18.0,-100.00,North,350,12.0,16.0,37,-99.99,,,-99.99,,2013-03-21 11:33:00,
2013-03-21 05:42:00,41.0,18.0,-100.00,North,0,9.0,16.0,37,-99.99,,,-99.99,,2013-03-21 11:42:00,
2013-03-21 05:52:00,43.0,18.0,-100.00,North,0,12.0,18.0,35,-99.99,,,-99.99,,2013-03-21 11:52:00,
2013-03-21 06:02:00,39.0,16.0,-100.00,North,10,22.0,28.0,38,-99.99,,,-99.99,,2013-03-21 12:02:00,
2013-03-21 06:12:00,36.0,16.0,-100.00,North,10,28.0,32.0,43,-99.99,,,-99.99,,2013-03-21 12:12:00,
2013-03-21 06:22:00,38.0,19.0,-100.00,North,350,32.0,38.0,45,-99.99,,,-99.99,,2013-03-21 12:22:00,
2013-03-21 06:32:00,37.0,19.0,-100.00,North,5,24.0,35.0,48,-99.99,,,-99.99,,2013-03-21 12:32:00,
2013-03-21 06:42:00,37.0,20.0,-100.00,North,0,23.0,27.0,50,-99.99,,,-99.99,,2013-03-21 12:42:00,
2013-03-21 06:52:00,37.0,20.0,-100.00,North,0,24.0,31.0,50,-99.99,,,-99.99,,2013-03-21 12:52:00,
2013-03-21 07:02:00,37.0,21.0,-100.00,North,350,27.0,32.0,51,-99.99,,,-99.99,,2013-03-21 13:02:00,
2013-03-21 07:12:00,37.0,22.0,-100.00,NNW,345,26.0,34.0,53,-99.99,,,-99.99,,2013-03-21 13:12:00,
2013-03-21 07:22:00,36.0,22.0,-100.00,North,355,28.0,38.0,55,-99.99,,,-99.99,,2013-03-21 13:22:00,
2013-03-21 07:32:00,35.0,23.0,-100.00,North,0,32.0,40.0,61,-99.99,,,-99.99,,2013-03-21 13:32:00,
2013-03-21 07:42:00,35.0,25.0,-100.00,North,0,32.0,38.0,67,-99.99,,,-99.99,,2013-03-21 13:42:00,
2013-03-21 07:52:00,35.0,27.0,-100.00,North,350,31.0,35.0,73,-99.99,,,-99.99,,2013-03-21 13:52:00,
2013-03-21 08:02:00,34.0,29.0,-100.00,NNW,345,32.0,41.0,80,-99.99,,,-99.99,,2013-03-21 14:02:00,
2013-03-21 08:12:00,34.0,29.0,-100.00,NNW,345,33.0,40.0,83,-99.99,,,-99.99,,2013-03-21 14:12:00,
2013-03-21 08:21:00,34.0,29.0,-100.00,NNW,345,29.0,37.0,84,-99.99,,,-99.99,,2013-03-21 14:21:00,
2013-03-21 08:32:00,33.0,29.0,-100.00,NNW,345,33.0,39.0,85,-99.99,,,-99.99,,2013-03-21 14:32:00,
2013-03-21 08:42:00,33.0,29.0,-100.00,NNW,345,33.0,39.0,87,-99.99,,,-99.99,,2013-03-21 14:42:00,
2013-03-21 08:52:00,33.0,29.0,-100.00,NNW,345,28.0,38.0,87,-99.99,,,-99.99,,2013-03-21 14:52:00,
2013-03-21 09:03:00,33.0,29.0,-100.00,NNW,345,29.0,35.0,87,-99.99,,,-99.99,,2013-03-21 15:03:00,
2013-03-21 09:12:00,33.0,29.0,-100.00,North,350,29.0,35.0,87,-99.99,,,-99.99,,2013-03-21 15:12:00,
2013-03-21 09:22:00,33.0,29.0,-100.00,North,350,29.0,37.0,87,-99.99,,,-99.99,,2013-03-21 15:22:00,
2013-03-21 09:33:00,33.0,29.0,-100.00,NNW,345,30.0,38.0,87,-99.99,,,-99.99,,2013-03-21 15:33:00,
2013-03-21 09:42:00,32.0,29.0,-100.00,NNW,340,31.0,39.0,86,-99.99,,,-99.99,,2013-03-21 15:42:00,
2013-03-21 09:52:00,33.0,29.0,-100.00,NNW,345,31.0,37.0,85,-99.99,,,-99.99,,2013-03-21 15:52:00,
2013-03-21 10:03:00,32.0,29.0,-100.00,NNW,345,29.0,37.0,86,-99.99,,,-99.99,,2013-03-21 16:03:00,
2013-03-21 10:12:00,31.0,28.0,-100.00,NNW,340,34.0,41.0,87,-99.99,,,-99.99,,2013-03-21 16:12:00,
2013-03-21 10:23:00,31.0,28.0,-100.00,NNW,345,32.0,40.0,91,-99.99,,,-99.99,,2013-03-21 16:23:00,
2013-03-21 10:33:00,30.0,29.0,-100.00,NNW,345,32.0,43.0,94,-99.99,,,-99.99,,2013-03-21 16:33:00,
2013-03-21 10:42:00,30.0,29.0,-100.00,NNW,345,32.0,41.0,96,-99.99,,,-99.99,,2013-03-21 16:42:00,
2013-03-21 10:52:00,30.0,29.0,-100.00,NNW,340,32.0,42.0,96,-99.99,,,-99.99,,2013-03-21 16:52:00,
2013-03-21 11:02:00,30.0,29.0,-100.00,NNW,340,35.0,47.0,96,-99.99,,,-99.99,,2013-03-21 17:02:00,
2013-03-21 11:23:00,30.0,29.0,-100.00,NNW,340,38.0,46.0,96,-99.99,,,-99.99,,2013-03-21 17:23:00,
2013-03-21 11:32:00,29.0,29.0,-100.00,NNW,340,35.0,49.0,96,-99.99,,,-99.99,,2013-03-21 17:32:00,
2013-03-21 11:52:00,29.0,28.0,-100.00,NNW,340,35.0,45.0,96,-99.99,,,-99.99,,2013-03-21 17:52:00,
2013-03-21 12:02:00,29.0,28.0,-100.00,NNW,340,32.0,42.0,96,-99.99,,,-99.99,,2013-03-21 18:02:00,
2013-03-21 12:12:00,29.0,28.0,-100.00,NNW,345,34.0,42.0,96,-99.99,,,-99.99,,2013-03-21 18:12:00,
2013-03-21 12:22:00,29.0,28.0,-100.00,NNW,340,31.0,43.0,96,-99.99,,,-99.99,,2013-03-21 18:22:00,
2013-03-21 12:32:00,29.0,28.0,-100.00,North,350,29.0,37.0,96,-99.99,,,-99.99,,2013-03-21 18:32:00,
2013-03-21 12:42:00,29.0,28.0,-100.00,NNW,345,30.0,38.0,96,-99.99,,,-99.99,,2013-03-21 18:42:00,
2013-03-21 12:52:00,28.0,27.0,-100.00,NNW,340,35.0,44.0,94,-99.99,,,-99.99,,2013-03-21 18:52:00,
2013-03-21 13:02:00,28.0,27.0,-100.00,NNW,340,34.0,44.0,93,-99.99,,,-99.99,,2013-03-21 19:02:00,
2013-03-21 13:12:00,28.0,27.0,-100.00,NNW,340,32.0,42.0,93,-99.99,,,-99.99,,2013-03-21 19:12:00,
2013-03-21 13:22:00,28.0,27.0,-100.00,NNW,330,35.0,44.0,94,-99.99,,,-99.99,,2013-03-21 19:22:00,
2013-03-21 13:32:00,28.0,27.0,-100.00,NNW,335,31.0,43.0,94,-99.99,,,-99.99,,2013-03-21 19:32:00,
2013-03-21 13:42:00,28.0,27.0,-100.00,NNW,340,35.0,44.0,95,-99.99,,,-99.99,,2013-03-21 19:42:00,
2013-03-21 14:02:00,28.0,27.0,-100.00,NNW,345,30.0,38.0,95,-99.99,,,-99.99,,2013-03-21 20:02:00,
2013-03-21 14:12:00,28.0,27.0,-100.00,NNW,345,29.0,37.0,95,-99.99,,,-99.99,,2013-03-21 20:12:00,
2013-03-21 14:22:00,28.0,27.0,-100.00,NNW,330,30.0,38.0,94,-99.99,,,-99.99,,2013-03-21 20:22:00,
2013-03-21 14:33:00,28.0,26.0,-100.00,NNW,330,29.0,40.0,92,-99.99,,,-99.99,,2013-03-21 20:33:00,
2013-03-21 14:42:00,28.0,26.0,-100.00,NNW,340,27.0,34.0,91,-99.99,,,-99.99,,2013-03-21 20:42:00,
2013-03-21 14:52:00,29.0,26.0,-100.00,NNW,340,26.0,34.0,91,-99.99,,,-99.99,,2013-03-21 20:52:00,
2013-03-21 15:02:00,28.0,26.0,-100.00,NNW,345,24.0,32.0,90,-99.99,,,-99.99,,2013-03-21 21:02:00,
2013-03-21 15:12:00,29.0,26.0,-100.00,NNW,340,24.0,30.0,90,-99.99,,,-99.99,,2013-03-21 21:12:00,
2013-03-21 15:43:00,29.0,25.0,-100.00,North,350,24.0,30.0,84,-99.99,,,-99.99,,2013-03-21 21:43:00,
2013-03-21 15:52:00,29.0,26.0,-100.00,NNW,345,19.0,29.0,85,-99.99,,,-99.99,,2013-03-21 21:52:00,
2013-03-21 16:02:00,30.0,25.0,-100.00,NNW,345,20.0,27.0,80,-99.99,,,-99.99,,2013-03-21 22:02:00,
2013-03-21 16:13:00,30.0,24.0,-100.00,North,355,22.0,29.0,75,-99.99,,,-99.99,,2013-03-21 22:13:00,
2013-03-21 16:23:00,31.0,21.0,-100.00,NNW,340,27.0,33.0,64,-99.99,,,-99.99,,2013-03-21 22:23:00,
2013-03-21 16:33:00,31.0,20.0,-100.00,NNW,345,27.0,32.0,61,-99.99,,,-99.99,,2013-03-21 22:33:00,
2013-03-21 16:52:00,32.0,18.0,-100.00,NNW,345,21.0,32.0,57,-99.99,,,-99.99,,2013-03-21 22:52:00,
2013-03-21 17:02:00,33.0,19.0,-100.00,North,355,21.0,27.0,58,-99.99,,,-99.99,,2013-03-21 23:02:00,
2013-03-21 17:12:00,33.0,20.0,-100.00,North,355,20.0,27.0,58,-99.99,,,-99.99,,2013-03-21 23:12:00,
2013-03-21 17:22:00,33.0,19.0,-100.00,North,0,18.0,22.0,57,-99.99,,,-99.99,,2013-03-21 23:22:00,
2013-03-21 17:32:00,33.0,19.0,-100.00,North,0,16.0,21.0,57,-99.99,,,-99.99,,2013-03-21 23:32:00,
2013-03-21 17:42:00,33.0,19.0,-100.00,North,355,16.0,19.0,55,-99.99,,,-99.99,,2013-03-21 23:42:00,
2013-03-21 17:52:00,33.0,19.0,-100.00,North,0,12.0,17.0,55,-99.99,,,-99.99,,2013-03-21 23:52:00,
2013-03-21 18:02:00,33.0,18.0,-100.00,North,5,13.0,20.0,53,-99.99,,,-99.99,,2013-03-22 00:02:00,
2013-03-21 18:12:00,33.0,17.0,-100.00,North,0,14.0,19.0,51,-99.99,,,-99.99,,2013-03-22 00:12:00,
2013-03-21 18:22:00,33.0,17.0,-100.00,North,5,11.0,14.0,52,-99.99,,,-99.99,,2013-03-22 00:22:00,
2013-03-21 18:32:00,33.0,17.0,-100.00,North,0,6.0,13.0,52,-99.99,,,-99.99,,2013-03-22 00:32:00,
2013-03-21 18:42:00,33.0,17.0,-100.00,NNW,345,7.0,10.0,52,-99.99,,,-99.99,,2013-03-22 00:42:00,
2013-03-21 18:52:00,33.0,17.0,-100.00,NNW,340,7.0,9.0,53,-99.99,,,-99.99,,2013-03-22 00:52:00,
2013-03-21 19:02:00,32.0,18.0,-100.00,NNW,340,6.0,9.0,55,-99.99,,,-99.99,,2013-03-22 01:02:00,
2013-03-21 19:12:00,32.0,18.0,-100.00,NNW,345,6.0,7.0,55,-99.99,,,-99.99,,2013-03-22 01:12:00,
2013-03-21 19:22:00,31.0,17.0,-100.00,North,5,6.0,8.0,55,-99.99,,,-99.99,,2013-03-22 01:22:00,
2013-03-21 19:32:00,31.0,17.0,-100.00,NNE,15,6.0,7.0,54,-99.99,,,-99.99,,2013-03-22 01:32:00,
2013-03-21 19:42:00,31.0,17.0,-100.00,NNE,15,7.0,7.0,54,-99.99,,,-99.99,,2013-03-22 01:42:00,
2013-03-21 19:52:00,31.0,17.0,-100.00,North,10,6.0,7.0,54,-99.99,,,-99.99,,2013-03-22 01:52:00,
2013-03-21 20:02:00,31.0,16.0,-100.00,NNE,25,4.0,7.0,54,-99.99,,,-99.99,,2013-03-22 02:02:00,
2013-03-21 20:12:00,30.0,16.0,-100.00,NE,40,3.0,6.0,54,-99.99,,,-99.99,,2013-03-22 02:12:00,
2013-03-21 20:22:00,30.0,16.0,-100.00,WSW,255,1.0,4.0,57,-99.99,,,-99.99,,2013-03-22 02:22:00,
2013-03-21 20:32:00,29.0,16.0,-100.00,NE,55,2.0,2.0,57,-99.99,,,-99.99,,2013-03-22 02:32:00,
2013-03-21 20:42:00,29.0,16.0,-100.00,NE,40,3.0,4.0,56,-99.99,,,-99.99,,2013-03-22 02:42:00,
2013-03-21 20:52:00,30.0,15.0,-100.00,North,5,1.0,2.0,53,-99.99,,,-99.99,,2013-03-22 02:52:00,
2013-03-21 21:02:00,29.0,15.0,-100.00,WSW,250,1.0,2.0,55,-99.99,,,-99.99,,2013-03-22 03:02:00,
2013-03-21 21:12:00,28.0,15.0,-100.00,WNW,290,1.0,2.0,57,-99.99,,,-99.99,,2013-03-22 03:12:00,
2013-03-21 21:22:00,28.0,15.0,-100.00,North,0,3.0,4.0,58,-99.99,,,-99.99,,2013-03-22 03:22:00,
2013-03-21 21:33:00,28.0,15.0,-100.00,NE,45,2.0,4.0,57,-99.99,,,-99.99,,2013-03-22 03:33:00,
2013-03-21 21:42:00,26.0,14.0,-100.00,SW,220,2.0,4.0,59,-99.99,,,-99.99,,2013-03-22 03:42:00,
2013-03-21 21:52:00,25.0,14.0,-100.00,North,0,0.0,1.0,61,-99.99,,,-99.99,,2013-03-22 03:52:00,
2013-03-21 22:03:00,26.0,14.0,-100.00,NE,50,3.0,4.0,62,-99.99,,,-99.99,,2013-03-22 04:03:00,
2013-03-21 22:12:00,26.0,14.0,-100.00,ESE,105,4.0,6.0,61,-99.99,,,-99.99,,2013-03-22 04:12:00,
2013-03-21 22:23:00,28.0,15.0,-100.00,NNE,30,2.0,5.0,59,-99.99,,,-99.99,,2013-03-22 04:23:00,
2013-03-21 22:32:00,29.0,14.0,-100.00,NNW,340,2.0,3.0,54,-99.99,,,-99.99,,2013-03-22 04:32:00,
2013-03-21 22:42:00,28.0,11.0,-100.00,NNW,345,4.0,6.0,49,-99.99,,,-99.99,,2013-03-22 04:42:00,
2013-03-21 22:52:00,28.0,10.0,-100.00,NNW,340,8.0,11.0,46,-99.99,,,-99.99,,2013-03-22 04:52:00,
2013-03-21 23:02:00,30.0,9.0,-100.00,NNW,335,12.0,15.0,40,-99.99,,,-99.99,,2013-03-22 05:02:00,
2013-03-21 23:12:00,31.0,9.0,-100.00,NNW,345,12.0,15.0,39,-99.99,,,-99.99,,2013-03-22 05:12:00,
2013-03-21 23:22:00,30.0,8.0,-100.00,North,0,10.0,15.0,38,-99.99,,,-99.99,,2013-03-22 05:22:00,
2013-03-21 23:32:00,28.0,8.0,-100.00,NNE,15,10.0,13.0,41,-99.99,,,-99.99,,2013-03-22 05:32:00,
2013-03-21 23:42:00,29.0,9.0,-100.00,NNE,20,12.0,14.0,42,-99.99,,,-99.99,,2013-03-22 05:42:00,
2013-03-21 23:52:00,27.0,9.0,-100.00,NNE,20,12.0,14.0,45,-99.99,,,-99.99,,2013-03-22 05:52:00,